sat.trackr.live / text

‹ back to catalog

STARLINK-32291

NORAD 62442 · 2024-251L

PAYLOAD ACTIVE UNKNOWN

§ Identity

Operator
Country
US
Launch date
2024-12-29
Launch site
AFWTR
Launch vehicle
Mass (kg)
RCS (m²)

Purposes: comms

External: N2YO · Heavens-Above · Gunter

§ Orbital elements

Epoch: 2026-05-24T22:40:43.871808Z

Period
94.11 min
Inclination
53.1608°
Eccentricity
0.0001112
Mean motion
15.30205300 rev/d
Perigee alt
474.4 km
Apogee alt
476.0 km
Semi-major
6,853.3 km
B*
7.6846e-4
RAAN
341.0895°
Arg perigee
72.7990°
Mean anomaly
287.3132°
Rev number
7,931

§ Raw data

STARLINK-322911 62442U 24251L   26144.94495222  .00022473  00000+0  76846-3 0  99972 62442  53.1608 341.0895 0001112  72.7990 287.3132 15.30205300 79317

JSON: /api/v1/satellites/62442 · /tle

For live sub-satellite position, see the globe view (requires WebGL).

§ Visibility from observer

Set your observer location to see the next 7 days of passes ≥ 10°. The values pass through the URL so the page stays shareable.

No JS? Fill the form by hand. The geolocation button needs JavaScript.